Location: La Comballaz
(46.3780°N, 7.0817°E)
Time: 05:09:23
(UTC+00:00)

Envisat - Pass Details

Date: 07 December 2021
Orbit: 764 x 766 km, 98.2° (Epoch: 16 January)

Event Time Altitude Azimuth Distance (km) Brightness Sun altitude
Rises 03:40:11 0° 23° (NNE) 3,243 6.5 -33.7°
Reaches altitude 10° 03:42:50 10° 36° (NE) 2,312 5.9 -33.2°
Maximum altitude 03:47:08 27° 94° (E) 1,445 4.9 -32.5°
Drops below altitude 10° 03:51:24 10° 151° (SSE) 2,296 5.8 -31.8°
Sets 03:54:01 0° 164° (SSE) 3,216 6.4 -31.3°
